When you browse on this site, cookies collect data to enhance your experience and personalize the content and advertising you see.
Visit our Privacy Policy to learn more. By continuing to use the site, you agree to this use of cookies and data.
  • In Österreich
  • Länderverzeichnis
  • Für 7 Tage
  • Wassertemperatur
  • Wetterkarte
  • News
  • Widgets
  • user-avatar
    Anmelden

    Stündliche Wetter Padilla

    Heute, 23 September, Montag

    Zeit Temperatur Niederschläge Wind Luftdruck Luftfeuchtigkeit
    00:00 +21°C° 0.6 mm 1 m/S 677 mmHg 89%
    01:00 +21°C° 0 mm 1 m/S 677 mmHg 89%
    02:00 +21°C° 0.6 mm 1 m/S 677 mmHg 89%
    03:00 +21°C° 0.6 mm 1 m/S 677 mmHg 89%
    04:00 +21°C° 0.6 mm 1 m/S 676 mmHg 90%
    05:00 +21°C° 0 mm 1 m/S 677 mmHg 88%
    06:00 +20°C° 0 mm 0 m/S 677 mmHg 87%
    07:00 +22°C° 0 mm 1 m/S 678 mmHg 84%
    08:00 +24°C° 0 mm 1 m/S 678 mmHg 77%
    09:00 +26°C° 0 mm 1 m/S 679 mmHg 71%
    10:00 +28°C° 0 mm 1 m/S 679 mmHg 64%
    11:00 +29°C° 0.3 mm 1 m/S 679 mmHg 61%
    12:00 +30°C° 0.3 mm 1 m/S 678 mmHg 59%
    13:00 +31°C° 0.3 mm 1 m/S 677 mmHg 57%
    14:00 +30°C° 0.6 mm 1 m/S 677 mmHg 60%
    15:00 +29°C° 0.6 mm 1 m/S 676 mmHg 64%
    16:00 +28°C° 0.6 mm 1 m/S 676 mmHg 68%
    17:00 +27°C° 1 mm 1 m/S 676 mmHg 75%
    18:00 +25°C° 1 mm 1 m/S 676 mmHg 81%
    19:00 +23°C° 1 mm 1 m/S 676 mmHg 87%
    20:00 +23°C° 0.4 mm 1 m/S 676 mmHg 87%
    21:00 +22°C° 0.4 mm 1 m/S 676 mmHg 87%
    22:00 +21°C° 0.4 mm 1 m/S 677 mmHg 86%
    23:00 +21°C° 0.1 mm 1 m/S 676 mmHg 85%

    Morgen, 24 September, Dienstag

    Zeit Temperatur Niederschläge Wind Luftdruck Luftfeuchtigkeit
    00:00 +21°C° 0.1 mm 1 m/S 676 mmHg 84%
    01:00 +21°C° 0.1 mm 1 m/S 676 mmHg 83%
    02:00 +21°C° 0 mm 1 m/S 676 mmHg 83%
    03:00 +21°C° 0 mm 1 m/S 676 mmHg 82%
    04:00 +20°C° 0 mm 1 m/S 675 mmHg 82%
    05:00 +21°C° 0 mm 1 m/S 676 mmHg 82%
    06:00 +20°C° 0 mm 0 m/S 677 mmHg 81%
    07:00 +20°C° 0 mm 0 m/S 677 mmHg 80%
    08:00 +24°C° 0 mm 1 m/S 678 mmHg 75%
    09:00 +26°C° 0 mm 1 m/S 678 mmHg 71%
    10:00 +28°C° 0 mm 1 m/S 679 mmHg 66%
    11:00 +29°C° 0.7 mm 1 m/S 678 mmHg 64%
    12:00 +29°C° 0.7 mm 1 m/S 678 mmHg 63%
    13:00 +30°C° 0.7 mm 1 m/S 677 mmHg 61%
    14:00 +30°C° 0.8 mm 1 m/S 677 mmHg 64%
    15:00 +29°C° 0.8 mm 1 m/S 676 mmHg 67%
    16:00 +26°C° 0.8 mm 0 m/S 676 mmHg 69%
    17:00 +27°C° 1.5 mm 1 m/S 676 mmHg 76%
    18:00 +25°C° 1.5 mm 1 m/S 676 mmHg 83%
    19:00 +24°C° 1.5 mm 1 m/S 676 mmHg 90%
    20:00 +23°C° 1.6 mm 1 m/S 677 mmHg 91%
    21:00 +23°C° 1.6 mm 1 m/S 677 mmHg 92%
    22:00 +21°C° 1.6 mm 0 m/S 678 mmHg 93%
    23:00 +20°C° 0.6 mm 0 m/S 677 mmHg 94%

    übermorgen, 25 September, Mittwoch

    Zeit Temperatur Niederschläge Wind Luftdruck Luftfeuchtigkeit
    00:00 +20°C° 0.6 mm 0 m/S 677 mmHg 94%
    01:00 +20°C° 0.6 mm 0 m/S 676 mmHg 94%
    02:00 +20°C° 0.1 mm 0 m/S 676 mmHg 93%
    03:00 +20°C° 0.1 mm 0 m/S 676 mmHg 92%
    04:00 +20°C° 0.1 mm 0 m/S 676 mmHg 92%
    05:00 +20°C° 0.1 mm 0 m/S 677 mmHg 91%
    06:00 +20°C° 0.1 mm 0 m/S 677 mmHg 90%
    07:00 +21°C° 0.1 mm 0 m/S 678 mmHg 89%
    08:00 +22°C° 0.1 mm 0 m/S 678 mmHg 84%
    09:00 +26°C° 0.1 mm 1 m/S 678 mmHg 78%
    10:00 +27°C° 0.1 mm 1 m/S 679 mmHg 73%
    11:00 +28°C° 0.5 mm 1 m/S 678 mmHg 70%
    12:00 +29°C° 0.5 mm 1 m/S 678 mmHg 67%
    13:00 +30°C° 0.5 mm 1 m/S 677 mmHg 63%
    14:00 +29°C° 1 mm 1 m/S 676 mmHg 66%
    15:00 +29°C° 1 mm 1 m/S 676 mmHg 69%
    16:00 +28°C° 1 mm 1 m/S 675 mmHg 72%
    17:00 +27°C° 2.1 mm 1 m/S 676 mmHg 78%
    18:00 +25°C° 2.1 mm 1 m/S 676 mmHg 85%
    19:00 +22°C° 2.1 mm 0 m/S 676 mmHg 91%
    20:00 +23°C° 1.8 mm 1 m/S 676 mmHg 92%
    21:00 +23°C° 1.8 mm 1 m/S 677 mmHg 92%
    22:00 +23°C° 1.8 mm 1 m/S 677 mmHg 93%
    23:00 +23°C° 0.9 mm 1 m/S 677 mmHg 92%

    26 September, Donnerstag

    Zeit Temperatur Niederschläge Wind Luftdruck Luftfeuchtigkeit
    00:00 +22°C° 0.9 mm 1 m/S 677 mmHg 91%
    01:00 +22°C° 0.9 mm 1 m/S 676 mmHg 90%
    02:00 +22°C° 0.6 mm 1 m/S 676 mmHg 90%
    03:00 +22°C° 0.6 mm 1 m/S 676 mmHg 89%
    04:00 +22°C° 0.6 mm 1 m/S 676 mmHg 88%
    05:00 +22°C° 0.2 mm 1 m/S 676 mmHg 88%
    06:00 +20°C° 0.2 mm 0 m/S 677 mmHg 87%
    07:00 +20°C° 0.2 mm 0 m/S 677 mmHg 86%
    08:00 +24°C° 0 mm 1 m/S 678 mmHg 81%
    09:00 +26°C° 0 mm 1 m/S 678 mmHg 76%
    10:00 +28°C° 0 mm 1 m/S 679 mmHg 70%
    11:00 +28°C° 0.8 mm 1 m/S 678 mmHg 69%
    12:00 +28°C° 0.8 mm 1 m/S 678 mmHg 68%
    13:00 +29°C° 0.8 mm 1 m/S 677 mmHg 67%
    14:00 +28°C° 1 mm 1 m/S 676 mmHg 69%
    15:00 +28°C° 1 mm 1 m/S 676 mmHg 72%
    16:00 +28°C° 1 mm 1 m/S 675 mmHg 74%
    17:00 +26°C° 1.8 mm 1 m/S 676 mmHg 80%
    18:00 +25°C° 1.8 mm 1 m/S 676 mmHg 85%
    19:00 +23°C° 1.8 mm 1 m/S 676 mmHg 90%
    20:00 +23°C° 0.9 mm 1 m/S 676 mmHg 90%
    21:00 +22°C° 0.9 mm 1 m/S 676 mmHg 90%
    22:00 +22°C° 0.9 mm 1 m/S 677 mmHg 90%
    23:00 +21°C° 0.1 mm 1 m/S 676 mmHg 90%

    27 September, Freitag

    Zeit Temperatur Niederschläge Wind Luftdruck Luftfeuchtigkeit
    00:00 +21°C° 0.1 mm 1 m/S 676 mmHg 89%
    01:00 +21°C° 0.1 mm 1 m/S 676 mmHg 89%
    02:00 +21°C° 0 mm 1 m/S 676 mmHg 89%
    03:00 +21°C° 0 mm 1 m/S 676 mmHg 89%
    04:00 +19°C° 0 mm 0 m/S 675 mmHg 89%
    05:00 +19°C° 0 mm 0 m/S 676 mmHg 89%
    06:00 +20°C° 0 mm 0 m/S 676 mmHg 88%
    07:00 +20°C° 0 mm 0 m/S 677 mmHg 87%
    08:00 +22°C° 0 mm 0 m/S 677 mmHg 81%
    09:00 +26°C° 0 mm 1 m/S 678 mmHg 76%
    10:00 +27°C° 0 mm 1 m/S 678 mmHg 70%
    11:00 +28°C° 0.7 mm 1 m/S 678 mmHg 69%
    12:00 +29°C° 0.7 mm 1 m/S 677 mmHg 67%
    13:00 +29°C° 0.7 mm 1 m/S 677 mmHg 66%
    14:00 +29°C° 1.2 mm 1 m/S 676 mmHg 68%
    15:00 +28°C° 1.2 mm 1 m/S 676 mmHg 70%
    16:00 +28°C° 1.2 mm 1 m/S 675 mmHg 72%
    17:00 +26°C° 1.2 mm 1 m/S 675 mmHg 77%
    18:00 +25°C° 1.2 mm 1 m/S 675 mmHg 83%
    19:00 +23°C° 1.2 mm 1 m/S 675 mmHg 89%
    20:00 +22°C° 0.7 mm 1 m/S 676 mmHg 89%
    21:00 +22°C° 0.7 mm 1 m/S 676 mmHg 89%
    22:00 +21°C° 0.7 mm 1 m/S 676 mmHg 90%
    23:00 +21°C° 0.2 mm 1 m/S 676 mmHg 90%

    28 September, Samstag

    Zeit Temperatur Niederschläge Wind Luftdruck Luftfeuchtigkeit
    00:00 +21°C° 0.2 mm 1 m/S 676 mmHg 90%
    01:00 +21°C° 0.2 mm 1 m/S 676 mmHg 90%
    02:00 +21°C° 0.4 mm 1 m/S 676 mmHg 90%
    03:00 +21°C° 0.4 mm 1 m/S 675 mmHg 90%
    04:00 +18°C° 0.4 mm 0 m/S 675 mmHg 90%
    05:00 +19°C° 0.1 mm 0 m/S 676 mmHg 90%
    06:00 +19°C° 0.1 mm 0 m/S 676 mmHg 89%
    07:00 +20°C° 0.1 mm 0 m/S 677 mmHg 88%
    08:00 +22°C° 0.1 mm 0 m/S 677 mmHg 84%
    09:00 +25°C° 0.1 mm 1 m/S 677 mmHg 79%
    10:00 +27°C° 0.1 mm 1 m/S 678 mmHg 75%
    11:00 +28°C° 0.6 mm 1 m/S 677 mmHg 73%
    12:00 +28°C° 0.6 mm 1 m/S 677 mmHg 71%
    13:00 +29°C° 0.6 mm 1 m/S 676 mmHg 69%
    14:00 +28°C° 2.2 mm 1 m/S 675 mmHg 74%
    15:00 +27°C° 2.2 mm 1 m/S 675 mmHg 79%
    16:00 +27°C° 2.2 mm 1 m/S 674 mmHg 83%
    17:00 +25°C° 1.4 mm 1 m/S 675 mmHg 86%
    18:00 +24°C° 1.4 mm 1 m/S 675 mmHg 89%
    19:00 +23°C° 1.4 mm 1 m/S 675 mmHg 92%
    20:00 +22°C° 0.6 mm 1 m/S 675 mmHg 92%
    21:00 +20°C° 0.6 mm 0 m/S 676 mmHg 92%
    22:00 +20°C° 0.6 mm 0 m/S 676 mmHg 91%
    23:00 +20°C° 0 mm 0 m/S 676 mmHg 92%
    Mehr zeigen